User: anonymous   Login
Location: Unspecified
(0.0000°N, 0.0000°E)
Time: 00:28:13
(UTC+00:00)
Language:

Cosmos 2499 - Orbit

View from above orbital plane
View from above orbital plane
View from above satellite
View from above satellite

Ground track
Ground track

The orbit data is extracted from the following two-line orbital elements,

1 39765U 14028E   17231.15002088 +.00000199 +00000-0 +70590-3 0  9996
2 39765 082.4390 269.4453 0229806 011.5202 349.1028 12.83341533151815
Epoch (UTC): 19 August 2017 03:36:01
Eccentricity: 0.0229806
inclination: 82.4390°
perigee height: 1151 km
apogee height: 1505 km
right ascension of ascending node: 269.4453°
argument of perigee: 11.5202°
revolutions per day: 12.83341533
mean anomaly at epoch: 349.1028°
orbit number at epoch: 15181

The dashed part of the orbit path shows where the satellite is in the earth's shadow,  

DLR